TimeMST,TemperatureF,Dew PointF,Humidity,Sea Level PressureIn,VisibilityMPH,Wind Direction,Wind SpeedMPH,Gust SpeedMPH,PrecipitationIn,Events,Conditions,WindDirDegrees,DateUTC
12:48 AM,37.9,32.0,79,29.82,-9999.0,West,6.9,-,N/A,,Unknown,270,2013-12-24 07:48:00
1:48 AM,39.0,32.0,76,29.91,-9999.0,West,6.9,-,0.02,,Unknown,280,2013-12-24 08:48:00
2:48 AM,39.0,32.0,76,29.95,-9999.0,WNW,11.5,-,N/A,,Unknown,290,2013-12-24 09:48:00
3:48 AM,39.0,30.9,73,29.99,-9999.0,NW,19.6,-,N/A,,Unknown,310,2013-12-24 10:48:00
4:48 AM,37.9,30.9,76,30.04,-9999.0,NW,16.1,-,N/A,,Unknown,320,2013-12-24 11:48:00
5:48 AM,35.1,28.0,76,30.07,-9999.0,WNW,10.4,-,0.01,,Unknown,300,2013-12-24 12:48:00
6:48 AM,30.0,21.9,72,30.12,-9999.0,WNW,8.1,-,N/A,,Unknown,290,2013-12-24 13:48:00
8:48 AM,23.0,16.0,74,30.18,-9999.0,WNW,10.4,-,N/A,,Unknown,290,2013-12-24 15:48:00
9:48 AM,30.0,21.0,69,30.18,-9999.0,West,9.2,-,N/A,,Unknown,280,2013-12-24 16:48:00
10:48 AM,36.0,27.0,70,30.17,-9999.0,West,6.9,-,N/A,,Unknown,270,2013-12-24 17:48:00
11:48 AM,39.9,28.9,65,30.15,-9999.0,WNW,16.1,-,N/A,,Unknown,300,2013-12-24 18:48:00
12:48 PM,39.0,30.0,70,30.15,-9999.0,West,6.9,-,N/A,,Unknown,260,2013-12-24 19:48:00
1:48 PM,39.0,30.0,70,30.15,-9999.0,West,8.1,-,N/A,,Unknown,270,2013-12-24 20:48:00
2:48 PM,39.9,30.9,70,30.14,-9999.0,WSW,6.9,-,N/A,,Unknown,250,2013-12-24 21:48:00
3:48 PM,41.0,28.9,62,30.14,-9999.0,West,8.1,-,N/A,,Unknown,270,2013-12-24 22:48:00
4:48 PM,37.9,26.1,62,30.16,-9999.0,West,10.4,-,N/A,,Unknown,280,2013-12-24 23:48:00
5:48 PM,34.0,21.9,61,30.18,-9999.0,West,8.1,-,N/A,,Unknown,260,2013-12-25 00:48:00
6:48 PM,28.9,19.0,67,30.20,-9999.0,West,5.8,-,N/A,,Unknown,270,2013-12-25 01:48:00
7:48 PM,30.9,19.9,64,30.23,-9999.0,WNW,13.8,-,N/A,,Unknown,290,2013-12-25 02:48:00
8:48 PM,34.0,23.0,64,30.26,-9999.0,West,11.5,-,N/A,,Unknown,280,2013-12-25 03:48:00
9:48 PM,33.1,23.0,66,30.28,-9999.0,West,6.9,-,N/A,,Unknown,270,2013-12-25 04:48:00
10:48 PM,33.1,23.0,66,30.28,-9999.0,WNW,9.2,-,N/A,,Unknown,300,2013-12-25 05:48:00
11:48 PM,33.1,23.0,66,30.30,-9999.0,NW,6.9,-,N/A,,Unknown,310,2013-12-25 06:48:00